EW5770 Weather Reports


Display with metric or nautical units.
time (UTC)temp
F
wind
direction
speed
MPH
gust
MPH
rain 1hr
in
rain 24hr
in
rain mn
in
humidity
%
barometer
mb
20260901190206 76 0 0.0 0.0 0.00 0.00 0.00 83 1016.9
20260901184157 77 0 0.0 0.0 0.00 0.00 0.00 82 1016.7
20260901182212 78 0 0.0 0.0 0.00 0.00 0.00 80 1016.6
20260901181206 78 0 0.0 0.0 0.00 0.00 0.00 79 1016.5
20260901180206 79 0 0.0 0.0 0.00 0.00 0.00 78 1016.4
20260901174206 79 0 0.0 0.0 0.00 0.00 0.00 77 1016.3
20260901173207 80 0 0.0 0.0 0.00 0.00 0.00 77 1016.3
20260901171204 80 0 0.0 0.0 0.00 0.00 0.00 75 1016.2
20260901165207 80 0 0.0 0.0 0.00 0.00 0.00 75 1016.2
20260901163206 82 0 0.0 0.0 0.00 0.00 0.00 73 1016.1
20260901162205 82 0 0.0 0.0 0.00 0.00 0.00 72 1016.0
20260901161204 82 0 0.0 0.0 0.00 0.00 0.00 71 1016.1
20260901160207 83 231 0.0 1.0 0.00 0.00 0.00 70 1016.1
20260901155159 83 0 0.0 0.0 0.00 0.00 0.00 69 1016.1
20260901154205 82 218 0.0 1.0 0.00 0.00 0.00 69 1016.1
20260901151207 82 231 0.0 1.0 0.00 0.00 0.00 71 1016.3
20260901150158 82 234 0.0 1.0 0.00 0.00 0.00 71 1016.3
20260901145207 82 248 0.0 1.0 0.00 0.00 0.00 72 1016.3
20260901144157 82 241 0.0 1.0 0.00 0.00 0.00 72 1016.4
20260901142206 82 230 0.0 1.0 0.00 0.00 0.00 73 1016.6
20260901141206 83 234 1.0 10.0 0.00 0.00 0.00 72 1016.6
20260901140206 83 245 2.0 2.0 0.00 0.00 0.00 71 1016.5
20260901134207 83 247 0.0 1.0 0.00 0.00 0.00 71 1016.5
20260901132207 83 242 2.0 13.0 0.00 0.00 0.00 69 1016.5
20260901131206 84 231 1.0 1.0 0.00 0.00 0.00 68 1016.5
20260901130208 85 199 1.0 4.0 0.00 0.00 0.00 67 1016.5
20260901125205 85 243 0.0 1.0 0.00 0.00 0.00 66 1016.5
20260901124223 85 210 0.0 1.0 0.00 0.00 0.00 66 1016.5
20260901123205 85 230 0.0 1.0 0.00 0.00 0.00 67 1016.5
20260901122203 85 240 0.0 1.0 0.00 0.00 0.00 66 1016.5
20260901121206 85 136 0.0 1.0 0.00 0.00 0.00 67 1016.5
20260901120207 84 215 0.0 3.0 0.00 0.00 0.00 68 1016.5
20260901115207 84 237 0.0 2.0 0.00 0.00 0.00 69 1016.4
20260901112206 84 235 0.0 1.0 0.00 0.00 0.00 69 1016.5
20260901110207 84 244 1.0 1.0 0.00 0.00 0.00 68 1016.6
20260901105205 84 242 0.0 1.0 0.00 0.00 0.00 67 1016.7
20260901104204 85 245 0.0 1.0 0.00 0.00 0.00 66 1016.7
20260901103203 84 222 0.0 1.0 0.00 0.00 0.00 67 1016.7
20260901094206 84 245 0.0 1.0 0.00 0.00 0.00 66 1016.8
20260901093208 85 242 0.0 1.0 0.00 0.00 0.00 65 1016.7
20260901092211 86 0 0.0 0.0 0.00 0.00 0.00 63 1016.6
20260901091208 86 231 0.0 1.0 0.00 0.00 0.00 61 1016.5
20260901090206 85 162 0.0 1.0 0.00 0.00 0.00 61 1016.5
20260901085208 85 149 0.0 1.0 0.00 0.00 0.00 62 1016.5
20260901083207 84 0 0.0 0.0 0.00 0.00 0.00 66 1016.3
20260901082205 83 0 0.0 0.0 0.00 0.00 0.00 68 1016.4
20260901081207 82 0 0.0 0.0 0.00 0.00 0.00 71 1016.4
20260901080212 80 0 0.0 0.0 0.00 0.00 0.00 72 1016.3
20260901075203 79 0 0.0 0.0 0.00 0.00 0.00 74 1016.3
20260901074202 78 0 0.0 0.0 0.00 0.00 0.00 75 1016.3
20260901073159 78 63 0.0 1.0 0.00 0.00 0.00 76 1016.3
20260901072207 76 0 0.0 0.0 0.00 0.00 0.00 78 1016.4
20260901071207 76 0 0.0 0.0 0.00 0.00 0.00 79 1016.2
20260901070210 75 0 0.0 0.0 0.00 0.00 0.00 81 1016.2
20260901065206 75 0 0.0 0.0 0.00 0.00 0.00 82 1016.2
20260901062210 72 0 0.0 0.0 0.00 0.00 0.00 86 1016.0
20260901061205 71 0 0.0 0.0 0.00 0.00 0.00 87 1016.0
20260901060206 71 0 0.0 0.0 0.00 0.00 0.00 88 1015.8
20260901055205 71 0 0.0 0.0 0.00 0.00 0.00 88 1015.8
20260901054208 71 0 0.0 0.0 0.00 0.00 0.00 88 1015.8
20260901053205 70 0 0.0 0.0 0.00 0.00 0.00 88 1015.7
20260901052205 70 0 0.0 0.0 0.00 0.00 0.00 89 1015.7
20260901051208 70 0 0.0 0.0 0.00 0.00 0.00 89 1015.7
20260901050209 70 0 0.0 0.0 0.00 0.00 0.00 89 1015.7
20260901045209 70 0 0.0 0.0 0.00 0.00 0.00 88 1015.6
20260901044205 70 0 0.0 0.0 0.00 0.00 0.00 88 1015.7
20260901043158 70 0 0.0 0.0 0.00 0.00 0.00 89 1015.6